Location: Carri�res
(48.9069°N, 2.1792°E)
Time: 19:05:54
(UTC+00:00)

SeaSat 1 - Pass Details

Date: 16 May 2021
Orbit: 744 x 747 km, 108.0° (Epoch: 12 June)

Event Time Altitude Azimuth Distance (km) Brightness Sun altitude
Rises 02:43:41 0° 20° (NNE) 3,203 7.1 -11.5°
Reaches altitude 10° 02:46:54 10° 358° (N) 2,275 5.6 -11.2°
Maximum altitude 02:49:34 15° 325° (NW) 1,955 4.8 -10.9°
Drops below altitude 10° 02:52:15 10° 292° (WNW) 2,270 4.7 -10.6°
Enters shadow 02:54:55 - 272° (W) 3,014 5.2 -10.3°
